Location: Observatoire de Paris
(48.8363°N, 2.3365°E)
Time: 15:17:35
(UTC+01:00)

Vanguard 3 - Pass Details

Date: 09 August 2021
Orbit: 510 x 3260 km, 33.4° (Epoch: 23 September)

Event Time Altitude Azimuth Distance (km) Brightness Sun altitude
Rises 22:17:07 0° 271° (W) 6,199 12.3 -16.6°
Reaches altitude 10° 22:21:58 10° 260° (W) 5,540 11.8 -17.1°
Maximum altitude 22:34:38 25° 214° (SW) 4,921 10.9 -18.3°
Enters shadow 22:45:44 15° 176° (S) 5,750 10.9 -19.4°
